| time (UTC) | temp C | wind direction | speed KPH | gust KPH | rain 1hr cm | rain 24hr cm | rain mn cm | humidity % | barometer mb |
| 20260508034022 | 4 | 90 | 3.2 | 4.8 | 0.00 | 0.00 | 0.00 | 66 | 1015.6 |
| 20260508033022 | 4 | 225 | 11.3 | 11.3 | 0.00 | 0.00 | 0.00 | 67 | 1015.6 |
| 20260508032024 | 3 | 180 | 6.4 | 8.0 | 0.00 | 0.00 | 0.00 | 69 | 1015.7 |
| 20260508031022 | 4 | 68 | 8.0 | 9.7 | 0.00 | 0.00 | 0.00 | 67 | 1015.7 |
| 20260508030022 | 4 | 270 | 1.6 | 3.2 | 0.00 | 0.00 | 0.00 | 66 | 1015.6 |
| 20260508025022 | 4 | 180 | 11.3 | 12.9 | 0.00 | 0.00 | 0.00 | 66 | 1015.5 |
| 20260508024021 | 4 | 225 | 3.2 | 4.8 | 0.00 | 0.00 | 0.00 | 65 | 1015.5 |
| 20260508023022 | 5 | 180 | 8.0 | 11.3 | 0.00 | 0.00 | 0.00 | 64 | 1015.5 |
| 20260508022024 | 5 | 248 | 8.0 | 9.7 | 0.00 | 0.00 | 0.00 | 65 | 1015.5 |
| 20260508021021 | 5 | 248 | 8.0 | 8.0 | 0.00 | 0.00 | 0.00 | 64 | 1015.5 |
| 20260508020022 | 5 | 180 | 3.2 | 4.8 | 0.00 | 0.00 | 0.00 | 64 | 1015.4 |
| 20260508015021 | 5 | 158 | 1.6 | 3.2 | 0.00 | 0.00 | 0.00 | 62 | 1015.3 |
| 20260508014022 | 5 | 180 | 6.4 | 8.0 | 0.00 | 0.00 | 0.00 | 63 | 1015.2 |
| 20260508013023 | 5 | 135 | 1.6 | 3.2 | 0.00 | 0.00 | 0.00 | 62 | 1015.2 |
| 20260508012022 | 5 | 158 | 6.4 | 8.0 | 0.00 | 0.00 | 0.00 | 62 | 1015.2 |
| 20260508011022 | 5 | 135 | 1.6 | 3.2 | 0.00 | 0.00 | 0.00 | 61 | 1015.0 |
| 20260508010023 | 6 | 23 | 3.2 | 4.8 | 0.00 | 0.00 | 0.00 | 63 | 1015.0 |
| 20260508005022 | 6 | 90 | 1.6 | 3.2 | 0.00 | 0.00 | 0.00 | 64 | 1014.7 |
| 20260508004024 | 6 | 90 | 1.6 | 3.2 | 0.00 | 0.00 | 0.00 | 63 | 1014.7 |
| 20260508003022 | 6 | 180 | 4.8 | 6.4 | 0.00 | 0.00 | 0.00 | 62 | 1014.5 |
| 20260508002022 | 6 | 113 | 3.2 | 3.2 | 0.00 | 0.00 | 0.00 | 62 | 1014.5 |
| 20260508001022 | 7 | 158 | 6.4 | 8.0 | 0.00 | 0.00 | 0.00 | 61 | 1014.4 |
| 20260508000022 | 7 | 113 | 4.8 | 9.7 | 0.00 | 0.00 | 0.00 | 59 | 1014.2 |
| 20260507235022 | 7 | 68 | 3.2 | 3.2 | 0.00 | 0.00 | 0.00 | 59 | 1014.1 |
| 20260507234021 | 7 | 113 | 4.8 | 4.8 | 0.00 | 0.00 | 0.00 | 59 | 1014.0 |
| 20260507233024 | 8 | 180 | 4.8 | 8.0 | 0.00 | 0.00 | 0.00 | 59 | 1013.9 |
| 20260507232021 | 8 | 113 | 4.8 | 8.0 | 0.00 | 0.00 | 0.00 | 59 | 1013.8 |
| 20260507231024 | 8 | 68 | 3.2 | 4.8 | 0.00 | 0.00 | 0.00 | 59 | 1013.5 |
| 20260507230021 | 8 | 158 | 4.8 | 6.4 | 0.00 | 0.00 | 0.00 | 58 | 1013.4 |
| 20260507225022 | 9 | 225 | 4.8 | 8.0 | 0.00 | 0.00 | 0.00 | 56 | 1013.4 |
| 20260507224022 | 10 | 135 | 4.8 | 8.0 | 0.00 | 0.00 | 0.00 | 53 | 1013.3 |
| 20260507223021 | 10 | 113 | 3.2 | 4.8 | 0.00 | 0.00 | 0.00 | 55 | 1013.2 |
| 20260507222022 | 10 | 135 | 4.8 | 8.0 | 0.00 | 0.00 | 0.00 | 54 | 1013.1 |
| 20260507221021 | 11 | 203 | 14.5 | 16.1 | 0.00 | 0.00 | 0.00 | 53 | 1013.0 |
| 20260507220022 | 11 | 203 | 8.0 | 9.7 | 0.00 | 0.00 | 0.00 | 53 | 1012.9 |
| 20260507215022 | 11 | 158 | 9.7 | 14.5 | 0.00 | 0.00 | 0.00 | 54 | 1012.7 |
| 20260507214021 | 12 | 225 | 0.0 | 1.6 | 0.00 | 0.00 | 0.00 | 59 | 1012.7 |
| 20260507213022 | 11 | 135 | 4.8 | 4.8 | 0.00 | 0.00 | 0.00 | 66 | 1012.8 |
| 20260507212021 | 11 | 203 | 8.0 | 11.3 | 0.00 | 0.00 | 0.00 | 80 | 1012.7 |
| 20260507211022 | 11 | 225 | 11.3 | 16.1 | 0.00 | 0.00 | 0.00 | 77 | 1012.5 |
| 20260507210021 | 10 | 135 | 3.2 | 4.8 | 0.00 | 0.00 | 0.00 | 90 | 1012.6 |
| 20260507205024 | 10 | 113 | 4.8 | 8.0 | 0.00 | 0.00 | 0.00 | 89 | 1012.5 |
| 20260507204022 | 10 | 135 | 3.2 | 4.8 | 0.00 | 0.00 | 0.00 | 92 | 1012.5 |
| 20260507203021 | 10 | 113 | 6.4 | 11.3 | 0.00 | 0.00 | 0.00 | 88 | 1012.6 |
| 20260507202024 | 12 | 135 | 1.6 | 3.2 | 0.00 | 0.00 | 0.00 | 88 | 1012.5 |
| 20260507201021 | 11 | 90 | 1.6 | 3.2 | 0.00 | 0.00 | 0.00 | 90 | 1012.6 |
| 20260507200022 | 10 | 180 | 3.2 | 3.2 | 0.00 | 0.00 | 0.00 | 93 | 1012.7 |
| 20260507195022 | 10 | 23 | 4.8 | 6.4 | 0.00 | 0.00 | 0.00 | 91 | 1012.8 |
| 20260507194022 | 8 | 203 | 3.2 | 4.8 | 0.00 | 0.00 | 0.00 | 98 | 1012.8 |
| 20260507193021 | 8 | 113 | 4.8 | 6.4 | 0.00 | 0.00 | 0.00 | 98 | 1012.9 |
| 20260507192022 | 8 | 180 | 6.4 | 11.3 | 0.00 | 0.00 | 0.00 | 98 | 1013.0 |
| 20260507191024 | 8 | 248 | 6.4 | 8.0 | 0.00 | 0.00 | 0.00 | 99 | 1013.2 |
| 20260507190021 | 8 | 248 | 8.0 | 8.0 | 0.00 | 0.00 | 0.00 | 98 | 1013.2 |
| 20260507185024 | 8 | 180 | 3.2 | 4.8 | 0.00 | 0.00 | 0.00 | 98 | 1013.3 |
| 20260507184021 | 8 | 90 | 1.6 | 3.2 | 0.00 | 0.00 | 0.00 | 98 | 1013.3 |
| 20260507183022 | 8 | 68 | 3.2 | 3.2 | 0.00 | 0.00 | 0.00 | 97 | 1013.5 |
| 20260507182022 | 9 | 45 | 3.2 | 4.8 | 0.00 | 0.00 | 0.00 | 98 | 1013.5 |
| 20260507181021 | 9 | 203 | 1.6 | 3.2 | 0.00 | 0.00 | 0.00 | 97 | 1013.5 |
| 20260507180022 | 9 | 293 | 4.8 | 6.4 | 0.00 | 0.00 | 0.00 | 97 | 1013.4 |
| 20260507175022 | 10 | 113 | 3.2 | 4.8 | 0.00 | 0.00 | 0.00 | 99 | 1013.4 |
| 20260507174022 | 9 | 45 | 1.6 | 3.2 | 0.00 | 0.00 | 0.00 | 99 | 1013.5 |
| 20260507173021 | 8 | 158 | 4.8 | 8.0 | 0.00 | 0.00 | 0.00 | 99 | 1013.6 |
| 20260507172022 | 8 | 45 | 6.4 | 8.0 | 0.00 | 0.00 | 0.00 | 99 | 1013.7 |
| 20260507171022 | 7 | 270 | 1.6 | 3.2 | 0.00 | 0.00 | 0.00 | 99 | 1013.7 |
| 20260507170021 | 7 | 113 | 1.6 | 3.2 | 0.00 | 0.00 | 0.00 | 99 | 1014.1 |
| 20260507165022 | 7 | 135 | 3.2 | 3.2 | 0.00 | 0.00 | 0.00 | 99 | 1014.2 |
| 20260507164021 | 8 | 158 | 3.2 | 4.8 | 0.00 | 0.00 | 0.00 | 99 | 1014.1 |
| 20260507163023 | 6 | 158 | 1.6 | 3.2 | 0.00 | 0.00 | 0.00 | 99 | 1014.3 |
| 20260507162022 | 6 | 248 | 3.2 | 4.8 | 0.00 | 0.00 | 0.00 | 99 | 1014.4 |
| 20260507161022 | 6 | 203 | 1.6 | 3.2 | 0.00 | 0.00 | 0.00 | 99 | 1014.7 |
| 20260507160022 | 6 | 180 | 0.0 | 3.2 | 0.00 | 0.00 | 0.00 | 99 | 1014.6 |
| 20260507155024 | 5 | 45 | 3.2 | 3.2 | 0.00 | 0.00 | 0.00 | 99 | 1014.7 |
| 20260507154022 | 5 | 315 | 0.0 | 1.6 | 0.00 | 0.00 | 0.00 | 99 | 1014.6 |
| 20260507153022 | 5 | 180 | 1.6 | 3.2 | 0.00 | 0.00 | 0.00 | 99 | 1014.9 |
| 20260507152022 | 5 | 23 | 1.6 | 3.2 | 0.00 | 0.00 | 0.00 | 99 | 1014.8 |
| 20260507151022 | 5 | 293 | 3.2 | 3.2 | 0.00 | 0.00 | 0.00 | 99 | 1015.0 |
| 20260507150023 | 5 | 23 | 3.2 | 3.2 | 0.00 | 0.00 | 0.00 | 99 | 1014.9 |
| 20260507145022 | 5 | 23 | 4.8 | 4.8 | 0.00 | 0.00 | 0.00 | 99 | 1014.8 |
| 20260507144021 | 5 | 23 | 4.8 | 8.0 | 0.00 | 0.00 | 0.00 | 99 | 1014.8 |
| 20260507143021 | 5 | 23 | 3.2 | 4.8 | 0.00 | 0.00 | 0.00 | 99 | 1014.9 |
| 20260507142022 | 5 | 315 | 3.2 | 8.0 | 0.00 | 0.00 | 0.00 | 99 | 1015.0 |
| 20260507141024 | 5 | 23 | 1.6 | 3.2 | 0.00 | 0.00 | 0.00 | 99 | 1015.4 |
| 20260507140022 | 5 | 315 | 1.6 | 3.2 | 0.00 | 0.00 | 0.00 | 99 | 1015.4 |
| 20260507135021 | 5 | 23 | 3.2 | 3.2 | 0.00 | 0.00 | 0.00 | 99 | 1015.4 |
| 20260507134022 | 5 | 360 | 4.8 | 6.4 | 0.00 | 0.00 | 0.00 | 99 | 1015.5 |
| 20260507133022 | 5 | 360 | 1.6 | 3.2 | 0.00 | 0.00 | 0.00 | 99 | 1015.4 |
| 20260507132021 | 5 | 360 | 3.2 | 4.8 | 0.00 | 0.00 | 0.00 | 99 | 1015.5 |
| 20260507131024 | 6 | 248 | 1.6 | 1.6 | 0.00 | 0.00 | 0.00 | 99 | 1015.6 |
| 20260507130023 | 6 | 338 | 1.6 | 3.2 | 0.00 | 0.00 | 0.00 | 99 | 1015.5 |
| 20260507125022 | 6 | 23 | 3.2 | 4.8 | 0.00 | 0.00 | 0.00 | 99 | 1015.5 |
| 20260507124021 | 6 | 248 | 3.2 | 4.8 | 0.00 | 0.00 | 0.00 | 99 | 1015.7 |
| 20260507123022 | 6 | 45 | 3.2 | 3.2 | 0.00 | 0.00 | 0.00 | 99 | 1015.6 |
| 20260507122021 | 7 | 68 | 3.2 | 3.2 | 0.00 | 0.00 | 0.00 | 99 | 1015.6 |
| 20260507121022 | 6 | 248 | 1.6 | 3.2 | 0.00 | 0.00 | 0.00 | 99 | 1015.5 |
| 20260507120022 | 7 | 180 | 1.6 | 3.2 | 0.00 | 0.00 | 0.00 | 99 | 1015.5 |
| 20260507115022 | 7 | 68 | 1.6 | 3.2 | 0.00 | 0.00 | 0.00 | 99 | 1015.3 |
| 20260507114024 | 7 | 225 | 0.0 | 0.0 | 0.00 | 0.00 | 0.00 | 99 | 1015.4 |
| 20260507113023 | 6 | 203 | 1.6 | 3.2 | 0.00 | 0.00 | 0.00 | 99 | 1015.4 |
| 20260507112022 | 7 | 248 | 1.6 | 3.2 | 0.00 | 0.00 | 0.00 | 99 | 1015.5 |
| 20260507111021 | 7 | 203 | 4.8 | 6.4 | 0.00 | 0.00 | 0.00 | 99 | 1015.1 |
| 20260507110022 | 7 | 135 | 4.8 | 8.0 | 0.00 | 0.00 | 0.00 | 99 | 1015.3 |
| 20260507105024 | 7 | 270 | 1.6 | 3.2 | 0.00 | 0.00 | 0.00 | 99 | 1015.0 |
| 20260507104022 | 7 | 68 | 3.2 | 3.2 | 0.00 | 0.00 | 0.00 | 99 | 1014.8 |
| 20260507103022 | 7 | 158 | 0.0 | 1.6 | 0.00 | 0.00 | 0.00 | 99 | 1014.8 |
| 20260507102022 | 7 | 158 | 0.0 | 1.6 | 0.00 | 0.00 | 0.00 | 99 | 1014.9 |
| 20260507101023 | 7 | 135 | 1.6 | 3.2 | 0.00 | 0.00 | 0.00 | 99 | 1014.9 |
| 20260507100022 | 7 | 225 | 6.4 | 8.0 | 0.00 | 0.00 | 0.00 | 99 | 1015.2 |
| 20260507095021 | 7 | 203 | 3.2 | 4.8 | 0.00 | 0.00 | 0.00 | 99 | 1015.1 |
| 20260507094022 | 7 | 203 | 6.4 | 8.0 | 0.00 | 0.00 | 0.00 | 99 | 1015.1 |
| 20260507093026 | 7 | 225 | 8.0 | 8.0 | 0.00 | 0.00 | 0.00 | 99 | 1015.0 |
| 20260507092022 | 7 | 180 | 0.0 | 1.6 | 0.00 | 0.00 | 0.00 | 99 | 1015.3 |
| 20260507091022 | 7 | 180 | 3.2 | 3.2 | 0.00 | 0.00 | 0.00 | 99 | 1014.9 |
| 20260507090022 | 7 | 158 | 4.8 | 4.8 | 0.00 | 0.00 | 0.00 | 99 | 1015.3 |
| 20260507085023 | 7 | 180 | 1.6 | 3.2 | 0.00 | 0.00 | 0.00 | 99 | 1015.2 |
| 20260507084021 | 7 | 135 | 1.6 | 3.2 | 0.00 | 0.00 | 0.00 | 99 | 1015.2 |
| 20260507083022 | 7 | 23 | 4.8 | 6.4 | 0.00 | 0.00 | 0.00 | 99 | 1015.0 |
| 20260507082022 | 8 | 203 | 3.2 | 3.2 | 0.00 | 0.00 | 0.00 | 99 | 1014.9 |
| 20260507081021 | 8 | 180 | 1.6 | 3.2 | 0.00 | 0.00 | 0.00 | 99 | 1015.1 |
| 20260507080025 | 8 | 180 | 3.2 | 3.2 | 0.00 | 0.00 | 0.00 | 99 | 1015.1 |
| 20260507075022 | 8 | 180 | 3.2 | 3.2 | 0.00 | 0.00 | 0.00 | 99 | 1015.2 |
| 20260507074022 | 8 | 68 | 1.6 | 3.2 | 0.00 | 0.00 | 0.00 | 99 | 1015.1 |
| 20260507073022 | 8 | 360 | 6.4 | 8.0 | 0.00 | 0.00 | 0.00 | 99 | 1015.1 |
| 20260507072021 | 8 | 23 | 8.0 | 8.0 | 0.00 | 0.00 | 0.00 | 99 | 1015.2 |
| 20260507071022 | 8 | 113 | 1.6 | 3.2 | 0.00 | 0.00 | 0.00 | 99 | 1015.3 |
| 20260507070022 | 8 | 45 | 4.8 | 4.8 | 0.00 | 0.00 | 0.00 | 99 | 1014.7 |
| 20260507065021 | 8 | 90 | 4.8 | 6.4 | 0.00 | 0.00 | 0.00 | 99 | 1014.6 |
| 20260507064022 | 8 | 225 | 1.6 | 3.2 | 0.00 | 0.00 | 0.00 | 99 | 1014.8 |
| 20260507063022 | 9 | 68 | 8.0 | 14.5 | 0.00 | 0.00 | 0.00 | 99 | 1014.5 |
| 20260507062021 | 9 | 68 | 6.4 | 8.0 | 0.00 | 0.00 | 0.00 | 99 | 1014.7 |
| 20260507061022 | 9 | 158 | 3.2 | 8.0 | 0.00 | 0.00 | 0.00 | 99 | 1014.9 |
| 20260507060023 | 9 | 225 | 9.7 | 16.1 | 0.00 | 0.00 | 0.00 | 99 | 1014.8 |
| 20260507055024 | 9 | 180 | 6.4 | 11.3 | 0.00 | 0.00 | 0.00 | 99 | 1015.2 |
| 20260507054023 | 9 | 158 | 20.9 | 29.0 | 0.00 | 0.00 | 0.00 | 99 | 1015.5 |
| 20260507053022 | 10 | 248 | 19.3 | 22.5 | 0.00 | 0.00 | 0.00 | 99 | 1015.6 |
| 20260507052021 | 10 | 225 | 4.8 | 8.0 | 0.00 | 0.00 | 0.00 | 99 | 1015.6 |
| 20260507051022 | 10 | 180 | 9.7 | 12.9 | 0.00 | 0.00 | 0.00 | 99 | 1015.5 |
| 20260507050021 | 10 | 180 | 8.0 | 9.7 | 0.00 | 0.00 | 0.00 | 99 | 1015.3 |
| 20260507045022 | 10 | 203 | 8.0 | 12.9 | 0.00 | 0.00 | 0.00 | 99 | 1015.0 |
| 20260507044024 | 10 | 203 | 8.0 | 16.1 | 0.00 | 0.00 | 0.00 | 99 | 1015.0 |
| 20260507043022 | 10 | 270 | 12.9 | 20.9 | 0.00 | 0.00 | 0.00 | 99 | 1014.7 |
| 20260507042022 | 10 | 225 | 19.3 | 24.1 | 0.00 | 0.00 | 0.00 | 99 | 1014.7 |
| 20260507041021 | 10 | 203 | 11.3 | 12.9 | 0.00 | 0.00 | 0.00 | 99 | 1015.1 |
| 20260507040033 | 10 | 158 | 12.9 | 17.7 | 0.00 | 0.00 | 0.00 | 99 | 1015.6 |
| 20260507035022 | 10 | 180 | 6.4 | 8.0 | 0.00 | 0.00 | 0.00 | 99 | 1015.8 |